カタログに戻る

FENGYUN 1C DEB

運用中SSO
NORAD 30467·DEBRIS·🇨🇳 China

打ち上げ May 10, 1999 から Taiyuan Satellite Launch Center

Loading…

次のパス (今後24時間)

TLE

最新Source: Space-Track

元期: Sep 14, 2026, 07:26 UTC

1 30467U 99025AGE 26257.30992078  .00001011  00000-0  50301-3 0  9990
2 30467  98.6567 283.1848 0064467  56.4282   5.3258 14.18117642 10707

AllMySatでFENGYUN 1C DEBをリアルタイム追跡

Download on the App Store